Weather History for Rawlins, WY

Change the Weather History Date:

Friday, October 11, 2013

  Actual Average Record
Temperature  
Mean Temperature 40 °F 45 °F  
Max Temperature 48 °F 59 °F 81 °F (1996)
Min Temperature 31 °F 32 °F 15 °F (1987)
Degree Days  
Heating Degree Days 25 20  
Month to date heating degree days 244 197  
Since 1 July heating degree days 459 583  
Cooling Degree Days 0 0  
Month to date cooling degree days 0 0  
Year to date cooling degree days 371 186  
Moisture  
Dew Point 33 °F    
Average Humidity 78    
Maximum Humidity 96    
Minimum Humidity 60    
Precipitation  
Precipitation 0.26 in 0.03 in 0.26 in (2013)
Month to date precipitation 1.02 0.31  
Year to date precipitation 7.26 7.83  
Sea Level Pressure  
Sea Level Pressure 29.85 in    
Wind  
Wind Speed 15 mph (WSW)    
Max Wind Speed 28 mph    
Max Gust Speed 36 mph    
Visibility 8 miles    
Events Rain , Snow    
T = Trace of Precipitation, MM = Missing Value Source: NWS Daily Summary

Daily Weather History Graph

Daily Weather History Graph

Search for Another Location

Airport:

Trip Planner

Search our weather history database for the weather conditions in past years. The results will help you decide how hot, cold, wet, or windy it might be!

Date:

Astronomy

Oct. 11, 2013 Rise Set
Actual Time 7:16 AM MDT 6:33 PM MDT
Civil Twilight 6:48 AM MDT 7:01 PM MDT
Nautical Twilight 6:16 AM MDT 7:33 PM MDT
Astronomical Twilight 5:44 AM MDT 8:05 PM MDT
Moon 2:03 PM MDT (10/11) No Moon Set
Length of Visible Light 12h 12m
Length of Day
11h 16m
Waxing Crescent, 48% of the Moon is Illuminated
Oct 11
Waxing Crescent
Oct 11
First Quarter
Oct 18
Full
Oct 26
Last Quarter
Nov 3
New

Hourly Weather History & Observations

Time (MDT) Temp. Windchill Dew Point Humidity Pressure Visibility Wind Dir Wind Speed Gust Speed Precip Events Conditions
12:49 AM 37.4 °F 28.5 °F 35.6 °F 93% 29.72 in 5.0 mi West 15.0 mph 24.2 mph 0.11 in Rain Rain
12:53 AM 37.0 °F 26.7 °F 35.1 °F 93% 29.64 in 5.0 mi West 19.6 mph 25.3 mph 0.11 in Rain Rain
1:26 AM 35.6 °F 25.9 °F 33.8 °F 93% 29.74 in 4.0 mi SW 16.1 mph - 0.06 in Rain Rain
1:35 AM 33.8 °F 24.3 °F 33.8 °F 100% 29.73 in 4.0 mi SW 13.8 mph - 0.08 in Rain Rain
1:53 AM 33.1 °F 23.0 °F 32.0 °F 96% 29.69 in 3.0 mi WSW 15.0 mph - 0.11 in Snow Light Snow
2:25 AM 33.8 °F 22.8 °F 32.0 °F 93% 29.75 in 6.0 mi WSW 18.4 mph 24.2 mph 0.02 in Snow Light Snow
2:53 AM 34.0 °F 22.4 °F 32.0 °F 92% 29.69 in 6.0 mi WSW 20.7 mph 27.6 mph 0.02 in Snow Light Snow
3:12 AM 33.8 °F 21.9 °F 33.8 °F 100% 29.75 in 10.0 mi WSW 21.9 mph 28.8 mph 0.00 in Rain Light Rain
3:45 AM 33.8 °F 22.5 °F 32.0 °F 93% 29.76 in 3.0 mi WSW 19.6 mph 28.8 mph 0.02 in Snow Light Snow
3:53 AM 34.0 °F 21.8 °F 32.0 °F 92% 29.70 in 4.0 mi WSW 23.0 mph 28.8 mph 0.02 in Snow Light Snow
4:17 AM 35.6 °F 26.2 °F 33.8 °F 93% 29.77 in 10.0 mi WSW 15.0 mph - 0.01 in Rain Light Rain
4:53 AM 37.0 °F 28.5 °F 35.1 °F 93% 29.70 in 10.0 mi West 13.8 mph - 0.01 in Rain Light Rain
5:33 AM 39.2 °F 30.2 °F 35.6 °F 87% 29.80 in 10.0 mi West 17.3 mph - 0.01 in Rain Light Rain
5:50 AM 39.2 °F 30.5 °F 35.6 °F 87% 29.81 in 10.0 mi WNW 16.1 mph 28.8 mph 0.02 in Rain Light Rain
5:53 AM 37.9 °F 28.9 °F 36.0 °F 93% 29.73 in 10.0 mi WNW 16.1 mph 28.8 mph 0.02 in Rain Light Rain
6:02 AM 39.2 °F 30.5 °F 35.6 °F 87% 29.81 in 10.0 mi WNW 16.1 mph 23.0 mph 0.00 in Rain Light Rain
6:17 AM 39.2 °F 30.2 °F 35.6 °F 87% 29.82 in 10.0 mi WNW 17.3 mph - 0.00 in Rain Light Rain
6:53 AM 39.0 °F 31.0 °F 36.0 °F 89% 29.76 in 10.0 mi West 13.8 mph 21.9 mph 0.01 in   Overcast
7:36 AM 39.2 °F 30.2 °F 35.6 °F 87% 29.86 in 10.0 mi West 17.3 mph - 0.00 in Rain Light Rain
7:44 AM 39.2 °F 30.5 °F 35.6 °F 87% 29.87 in 10.0 mi West 16.1 mph 23.0 mph 0.00 in Rain Light Rain
7:53 AM 39.0 °F 29.9 °F 36.0 °F 89% 29.80 in 10.0 mi West 17.3 mph - 0.00 in Rain Light Rain
8:32 AM 37.4 °F 29.3 °F 35.6 °F 93% 29.90 in 5.0 mi WSW 12.7 mph - 0.01 in Rain Light Rain
8:53 AM 37.0 °F 28.9 °F 35.1 °F 93% 29.85 in 7.0 mi West 12.7 mph - 0.01 in Rain Light Rain
9:53 AM 37.0 °F 27.0 °F 34.0 °F 89% 29.87 in 10.0 mi West 18.4 mph 23.0 mph 0.00 in   Overcast
10:23 AM 37.4 °F 28.9 °F 35.6 °F 93% 29.94 in 10.0 mi WSW 13.8 mph - N/A   Overcast
10:32 AM 37.4 °F 29.3 °F 35.6 °F 93% 29.94 in 10.0 mi WSW 12.7 mph - N/A   Overcast
10:53 AM 37.9 °F 27.9 °F 34.0 °F 86% 29.89 in 10.0 mi WSW 19.6 mph 24.2 mph 0.00 in Rain Light Rain
11:53 AM 37.9 °F 30.5 °F 35.1 °F 89% 29.90 in 10.0 mi WSW 11.5 mph - 0.00 in   Overcast
12:07 PM 39.2 °F 32.5 °F 35.6 °F 87% 29.96 in 10.0 mi West 10.4 mph - 0.01 in   Overcast
12:35 PM 42.8 °F 34.8 °F 33.8 °F 70% 29.95 in 10.0 mi West 17.3 mph 26.5 mph 0.01 in   Overcast
12:53 PM 43.0 °F 34.8 °F 33.1 °F 68% 29.88 in 10.0 mi West 18.4 mph 27.6 mph 0.01 in   Mostly Cloudy
1:53 PM 46.9 °F - 34.0 °F 61% 29.87 in 10.0 mi West 23.0 mph 34.5 mph N/A   Unknown
2:53 PM 42.1 °F 33.1 °F 34.0 °F 73% 29.91 in 8.0 mi West 20.7 mph 26.5 mph 0.02 in Rain Light Rain
3:53 PM 39.9 °F 32.1 °F 33.1 °F 77% 29.94 in 9.0 mi West 13.8 mph 29.9 mph 0.01 in Rain Light Rain
4:53 PM 41.0 °F 33.9 °F 32.0 °F 70% 29.94 in 10.0 mi West 12.7 mph - 0.03 in Rain Light Rain
5:53 PM 41.0 °F 34.7 °F 34.0 °F 76% 29.94 in 10.0 mi WSW 10.4 mph - 0.00 in   Mostly Cloudy
6:53 PM 42.1 °F 33.3 °F 30.9 °F 65% 29.95 in 10.0 mi WSW 19.6 mph 25.3 mph 0.00 in Rain Light Rain
7:53 PM 41.0 °F 32.8 °F 28.0 °F 60% 29.97 in 10.0 mi WSW 16.1 mph 26.5 mph 0.00 in   Overcast
8:53 PM 37.9 °F 30.5 °F 28.0 °F 68% 30.01 in 10.0 mi WSW 11.5 mph 20.7 mph N/A   Partly Cloudy
9:53 PM 36.0 °F 27.5 °F 27.0 °F 70% 30.04 in 10.0 mi West 12.7 mph 17.3 mph N/A   Clear
10:53 PM 37.0 °F 28.5 °F 26.1 °F 65% 30.05 in 10.0 mi West 13.8 mph - N/A   Clear
11:53 PM 32.0 °F 27.5 °F 26.1 °F 79% 30.10 in 10.0 mi SSE 4.6 mph - N/A   Clear